Vorticity
nan nan nan nan nan nan nan nan nan nan nan nan nan nan nan nan nan nan nan nan nan nan nan nan nan nan nan nan nan nan nan nan
nan 15 7 13 1 7 12 11 7 10 13 10 5 7 7 11 12 11 13 10 8 9 8 11 8 7 9 12 12 14 15 nan
nan 10 7 4 8 11 14 9 10 9 10 15 12 13 10 11 14 14 11 8 8 6 8 10 12 10 10 10 12 9 8 nan
nan 6 13 13 10 7 8 7 11 9 9 11 17 20 14 15 12 11 14 12 12 11 6 9 11 10 10 6 7 8 7 nan
nan 12 17 15 12 9 7 12 10 8 10 14 17 17 14 8 8 11 10 9 8 11 8 8 9 9 8 8 6 10 9 nan
nan 6 7 7 6 9 10 10 12 6 9 14 15 6 4 8 9 10 10 12 9 7 10 11 14 10 8 7 8 8 6 nan
nan 9 9 7 11 8 7 9 9 14 14 14 9 8 7 4 6 8 9 9 8 8 11 13 13 9 9 9 9 8 9 nan
nan 14 12 9 8 6 9 9 7 12 7 9 11 12 16 12 8 7 7 5 7 10 9 10 11 12 10 8 8 7 7 nan
nan 14 9 8 13 7 9 12 9 6 10 9 9 9 14 10 10 9 9 8 7 9 8 9 10 13 13 11 11 10 9 nan
nan 10 9 10 13 13 10 4 8 10 9 12 16 11 3 12 12 10 11 10 8 9 9 10 10 10 12 13 10 10 11 nan
nan 7 7 14 15 12 10 5 9 5 15 27 13 9 13 16 14 13 11 9 10 10 10 12 10 10 10 10 12 13 14 nan
nan 15 13 8 9 8 10 8 5 10 20 21 14 4 12 18 14 12 12 11 9 8 10 10 10 11 8 9 10 11 14 nan
nan 2 4 16 11 10 8 5 6 8 16 18 10 11 17 15 13 11 8 7 8 9 9 8 10 9 8 9 9 13 12 nan
nan 13 10 3 13 16 2 8 9 8 13 18 18 21 19 10 9 8 8 8 9 8 9 9 10 9 9 8 8 14 12 nan
nan 6 7 10 12 7 13 14 7 6 10 27 26 15 10 8 9 9 8 7 7 7 7 9 9 9 10 8 9 12 12 nan
nan 11 6 6 11 16 14 8 10 13 11 12 23 22 9 7 8 5 7 9 10 11 9 9 9 9 9 9 9 8 13 nan
nan 9 12 12 10 2 7 6 22 20 12 3 6 2 13 14 8 9 9 11 12 9 10 9 8 9 9 10 9 8 11 nan
nan 13 10 8 5 5 10 14 17 11 11 14 6 -0 3 14 15 9 9 9 11 13 13 11 9 9 9 10 10 9 9 nan
nan nan nan nan nan nan nan nan nan nan nan nan nan nan nan nan nan nan nan nan nan nan nan nan nan nan nan nan nan nan nan nan
CAPE
0 0 0 0 13 0 0 0 1 0 0 110 253 171 63 1 0 75 3 45 81 184 291 151 267 405 318 295 958 1143 1018 1161
0 0 0 0 0 0 0 0 29 0 0 9 331 277 24 15 0 29 99 58 189 162 114 97 106 146 189 151 74 861 1082 1181
0 0 0 0 0 0 0 0 3 32 12 0 45 105 37 62 9 131 178 210 251 112 115 167 403 487 412 376 224 86 55 312
0 0 0 0 0 0 0 0 0 17 39 1 31 9 67 199 359 683 358 304 294 158 2 0 134 215 386 5 53 7 0 0
0 0 0 33 0 0 0 0 3 9 12 0 3 276 315 367 444 425 373 266 158 85 6 0 3 0 0 0 0 0 0 0
0 0 0 33 14 0 0 0 0 2 18 46 268 348 308 417 435 339 583 617 272 222 393 399 58 0 0 0 0 0 4 0
0 2 7 24 7 0 0 0 0 4 5 158 285 379 319 354 504 563 443 460 525 512 713 753 187 89 6 19 0 4 0 2
0 0 26 15 3 15 25 0 0 0 0 0 71 97 251 351 462 766 871 533 461 409 347 813 630 332 205 105 15 0 0 0
0 0 0 10 7 5 24 2 0 0 0 1 93 103 338 398 509 712 974 1171 811 875 592 411 654 813 575 401 160 0 0 6
0 0 5 0 1 2 11 1 0 0 0 0 36 63 9 184 559 519 358 1190 1229 1331 939 634 458 530 454 515 342 206 144 71
0 0 0 12 18 3 0 7 0 0 0 0 10 4 120 239 327 176 327 465 947 1035 770 656 769 659 387 341 331 436 290 205
0 0 0 0 17 0 0 2 0 0 0 21 12 38 398 167 115 291 659 839 889 891 690 531 553 619 266 171 177 264 412 434
2 1 0 0 0 0 0 0 5 1 0 4 45 172 220 66 480 572 508 370 411 668 678 476 238 107 46 0 104 213 380 16
0 3 0 0 3 0 1 4 0 13 0 62 20 31 116 455 412 346 349 170 634 674 403 103 43 18 31 229 222 294 195 0
4 0 0 6 21 1 0 1 0 3 0 102 84 176 314 389 350 242 92 220 225 258 179 38 33 56 112 13 0 3 318 0
10 1 28 9 29 0 1 9 3 2 55 10 123 361 372 327 152 65 10 71 125 276 266 195 13 6 0 0 0 7 63 0
0 3 57 23 10 1 68 46 136 319 193 140 68 1 15 203 91 6 0 2 37 130 361 309 51 0 0 0 0 0 3 33
0 0 0 7 17 28 42 4 31 262 82 154 108 0 0 69 76 45 8 1 0 23 273 304 42 0 0 0 0 0 0 0
3 21 3 0 0 1 26 0 29 398 116 31 6 0 0 11 23 69 15 37 0 88 295 229 61 13 0 0 0 0 0 0